Theta_e
322 322 320 320 320 320 322 322 322 322 322 322 322 322 323 324 323 320 310 318 325 348 342 322 328 331 331 327 336 340 321 315 320 316 317 327 325 328 330 330 334 335 332 336 339
321 321 320 320 320 320 321 321 321 321 322 322 322 322 323 324 318 311 327 350 351 347 318 316 322 326 322 333 334 330 320 322 329 325 321 326 329 328 326 328 330 332 336 338 338
323 322 320 319 320 321 321 320 320 321 321 321 321 322 323 322 315 311 344 349 350 341 317 316 316 317 316 329 328 327 324 329 330 330 328 328 329 331 324 322 326 329 332 336 336
323 321 320 320 320 320 320 320 320 321 320 321 321 322 324 318 308 317 346 346 347 324 316 315 315 311 313 325 332 323 330 330 330 329 327 326 330 328 326 327 331 332 336 336 335
322 322 321 320 319 320 320 320 319 319 320 321 321 322 320 312 310 328 347 345 328 317 315 314 313 312 314 323 328 326 326 329 330 326 327 329 327 327 327 330 332 332 333 334 334
321 321 322 321 320 320 319 319 319 319 320 321 322 322 315 308 326 326 322 319 316 314 312 313 314 317 324 328 327 330 326 327 330 326 324 323 326 328 327 331 330 329 327 330 332
321 320 321 321 320 320 319 318 318 318 320 321 322 322 316 314 327 322 315 313 313 315 312 317 320 316 327 324 331 329 322 324 325 326 326 327 321 323 331 332 328 328 328 330 333
320 320 320 320 320 319 318 318 317 319 321 323 323 320 312 328 327 324 318 314 315 316 316 317 318 317 318 326 328 320 321 317 324 325 326 323 311 323 329 329 330 327 328 328 333
320 319 319 319 319 318 316 316 318 322 326 324 316 315 312 328 319 322 320 316 316 314 315 321 316 311 321 323 317 316 309 312 318 325 324 320 314 323 328 327 328 326 325 326 330
319 318 318 318 318 317 315 316 323 321 322 324 322 313 321 318 316 319 320 317 312 312 312 312 309 306 320 316 304 307 308 314 314 321 322 318 317 323 325 326 327 326 326 326 328
320 319 318 318 317 315 313 315 314 313 319 316 315 316 319 321 320 318 320 314 310 307 303 308 302 308 315 316 317 313 312 312 317 324 320 318 318 320 323 325 325 324 326 325 327
318 318 318 318 316 315 310 310 317 317 309 320 321 318 320 313 309 314 316 308 305 301 306 304 300 318 321 318 316 313 312 311 318 324 320 315 317 320 323 325 328 329 327 326 327
317 317 316 315 315 310 311 312 319 319 308 313 320 319 313 311 309 310 312 308 304 302 305 302 310 322 318 316 313 312 310 312 316 322 319 314 311 315 321 324 327 330 331 329 329
317 316 316 314 314 319 316 316 316 318 302 309 312 316 315 312 307 317 314 309 307 303 306 305 316 319 316 314 315 307 318 316 316 313 306 317 302 311 318 321 324 326 328 329 331
318 317 315 314 314 315 319 320 319 316 293 314 311 320 315 309 309 310 315 310 304 305 303 303 306 305 307 308 314 309 320 314 309 306 308 308 304 310 314 314 320 326 326 329 331
316 315 314 317 313 319 323 323 315 301 296 308 313 311 309 310 312 312 309 309 310 305 305 304 309 307 306 310 310 311 308 307 304 301 300 307 309 305 308 314 318 320 323 324 331
314 313 313 318 315 322 321 311 299 296 313 308 307 311 309 307 309 308 305 301 298 293 296 302 303 306 309 302 306 305 299 292 294 296 297 307 307 309 316 317 320 321 325 328 332
313 311 314 317 320 320 316 304 296 306 306 313 311 310 306 309 307 305 303 299 304 302 299 295 294 302 308 303 301 302 299 292 291 295 298 307 303 307 319 318 320 321 326 328 331
311 320 322 324 322 322 308 297 300 306 312 310 312 306 304 309 308 304 302 301 304 304 296 296 301 307 309 309 305 301 298 302 296 298 296 302 310 314 321 321 321 321 325 330 332
313 317 322 328 325 314 303 297 303 310 310 309 306 310 303 306 306 304 304 308 307 309 306 302 298 304 307 308 307 303 303 295 296 291 292 301 304 305 312 315 318 320 322 325 330
314 317 320 323 319 308 299 302 306 311 311 308 306 305 307 306 308 306 305 310 312 310 308 310 301 302 305 300 299 300 297 301 297 297 290 293 299 312 314 317 318 319 325 326 327
315 312 321 320 307 306 301 304 304 307 310 309 309 307 307 309 306 307 308 311 315 312 305 306 299 297 302 307 310 306 304 299 294 294 298 299 297 317 316 318 321 324 325 326 328
310 314 324 317 301 302 306 306 308 307 308 308 308 309 309 307 303 308 312 317 316 313 306 306 299 294 298 305 312 308 309 306 300 297 295 295 301 316 318 320 321 320 325 326 328
312 311 318 314 311 305 304 305 306 312 310 310 309 308 306 307 308 306 309 315 318 314 324 315 301 299 295 301 308 306 308 309 303 295 297 300 302 308 313 316 317 315 320 327 328
316 313 315 308 309 310 311 311 309 307 312 312 308 307 305 302 306 307 311 311 315 317 313 306 299 302 301 306 310 308 309 311 302 302 296 303 303 305 311 315 319 321 321 326 326
313 312 314 311 311 309 308 308 309 309 309 308 308 310 308 302 305 305 308 308 308 311 311 308 300 302 301 307 307 307 310 307 305 305 301 301 301 311 315 317 315 317 318 318 322
319 320 315 308 310 308 307 309 310 312 313 313 312 310 308 310 313 310 310 311 311 307 308 308 302 301 296 305 304 300 306 305 306 307 304 299 303 310 312 315 314 316 318 320 331
Wind_Speed
13 13 12 12 11 12 12 12 12 13 12 12 13 14 14 14 18 4 7 9 9 10 4 6 10 15 16 15 5 5 5 9 2 11 9 14 11 4 9 17 17 7 20 16 15
15 14 14 13 12 12 12 12 12 13 13 12 12 13 13 13 5 9 11 8 8 10 4 8 13 14 9 3 4 5 4 4 6 11 11 16 9 15 13 17 18 18 16 17 18
15 15 15 14 13 12 12 13 13 12 13 12 12 12 11 9 4 9 15 14 9 9 5 8 13 15 13 5 5 4 2 8 8 6 7 5 8 12 7 14 15 22 19 19 15
18 17 16 15 14 14 14 13 13 13 12 12 11 11 11 4 1 3 8 8 7 6 5 7 9 10 7 7 4 6 2 7 8 1 5 1 12 14 8 16 17 16 22 18 16
18 17 16 16 15 14 14 13 14 14 12 11 10 10 6 4 10 6 8 8 6 4 6 10 13 13 5 6 5 5 4 12 12 6 7 4 7 4 14 17 16 14 19 19 17
19 17 16 16 17 15 14 13 13 13 12 10 8 7 3 6 8 12 9 8 8 8 8 12 11 14 5 5 7 9 11 14 9 9 5 3 7 9 12 12 14 13 10 12 14
20 19 18 16 17 17 16 15 14 13 11 9 6 5 5 14 5 13 11 9 8 9 11 12 14 6 3 5 9 7 15 11 9 7 7 9 7 6 4 12 11 11 11 16 15
20 21 20 19 18 17 16 15 14 12 9 7 4 5 9 9 12 10 10 9 10 11 10 11 10 6 3 3 11 12 5 2 11 11 6 4 4 11 10 3 8 10 13 16 17
21 21 21 22 19 17 17 17 15 9 5 6 4 3 10 3 6 7 7 9 10 9 8 13 7 4 5 6 5 5 2 2 8 12 5 6 1 12 13 4 9 7 10 10 16
22 22 22 22 19 18 21 15 3 8 4 7 8 5 7 13 6 9 9 8 6 6 8 9 5 3 6 5 5 5 3 3 5 13 8 9 4 6 10 4 11 5 10 9 15
23 23 23 21 19 14 13 1 1 1 6 11 9 7 13 4 7 1 7 6 5 5 8 10 4 6 13 14 8 5 5 7 8 6 8 5 8 4 9 7 11 7 7 6 11
24 23 23 23 20 16 4 5 10 10 7 20 19 18 21 6 4 7 7 6 6 8 10 7 8 14 17 13 9 10 12 9 13 11 9 10 5 12 9 7 8 5 5 10 12
25 25 26 27 27 2 6 10 12 17 6 17 16 16 7 7 11 11 11 10 8 9 10 9 5 20 15 13 14 10 17 16 9 14 7 10 1 10 6 3 9 5 6 8 8
25 25 26 31 3 5 6 11 15 15 4 8 13 12 8 7 8 15 11 9 7 10 12 9 16 26 20 16 12 8 19 20 16 13 6 11 3 6 3 3 7 8 15 13 11
22 24 23 8 9 5 10 16 4 5 4 10 10 3 10 7 4 10 11 8 13 9 5 13 7 7 8 5 9 11 25 16 8 6 9 3 5 2 9 5 11 10 4 15 15
25 23 21 2 4 12 15 15 5 2 8 9 9 7 9 8 8 6 7 6 8 8 9 11 9 7 7 8 7 10 5 5 6 4 4 6 6 6 7 10 3 5 9 9 10
29 28 9 7 7 5 12 3 1 5 3 11 15 13 10 11 12 10 8 7 6 4 8 8 13 10 5 5 8 7 3 5 7 7 4 10 10 18 9 11 10 8 14 10 15
29 31 7 9 9 12 1 1 6 10 12 4 14 13 10 12 10 9 9 7 12 11 10 6 7 12 7 8 6 6 9 6 5 6 7 14 6 6 20 18 16 15 10 11 15
28 4 4 6 12 6 1 4 6 6 8 16 12 12 9 13 9 9 11 12 13 12 8 4 10 12 9 7 6 11 5 9 5 6 6 2 6 7 19 20 17 17 19 18 19
6 5 6 9 13 4 2 6 8 12 18 20 10 7 8 13 7 11 13 14 15 14 8 9 2 7 7 3 5 2 3 6 6 2 4 4 9 10 13 16 13 9 9 8 9
3 4 1 6 4 1 4 6 11 16 18 17 9 13 14 11 11 9 9 10 12 6 9 3 2 3 7 5 9 3 3 3 1 2 2 3 5 7 7 9 15 10 12 10 9
6 3 5 5 2 4 6 7 8 21 20 16 3 6 10 14 11 8 13 13 7 9 9 8 3 2 9 10 12 8 7 7 6 7 2 7 6 3 7 9 5 14 9 8 7
7 5 6 4 3 7 11 15 20 19 19 12 7 7 8 9 8 8 8 15 3 5 4 6 3 2 9 2 8 7 9 10 4 3 3 7 3 3 8 8 8 9 8 9 8
5 5 2 3 6 8 11 13 15 14 14 8 8 10 13 8 8 9 12 8 15 5 6 9 1 6 2 6 7 3 15 17 8 2 1 4 5 5 6 8 4 6 3 8 7
4 3 6 5 9 15 13 11 14 15 15 6 5 7 12 8 8 9 12 11 7 6 3 6 2 4 4 5 6 16 15 13 4 3 5 10 10 11 7 10 8 9 7 7 7
4 6 8 10 10 14 11 9 13 14 12 15 10 9 10 7 8 8 10 7 5 6 3 2 3 4 5 7 10 10 21 10 5 6 4 1 1 7 11 9 7 8 7 4 2
6 6 6 7 9 9 10 11 16 10 8 9 13 10 8 9 7 5 6 11 11 4 5 2 2 1 6 8 9 3 5 5 5 1 3 4 5 8 8 9 9 9 8 5 9
Wind_Direction
352 346 339 333 328 322 318 315 313 315 315 317 321 322 324 324 307 194 236 234 202 184 192 263 224 243 252 264 42 76 59 299 106 135 160 256 283 59 95 75 68 83 133 137 134
357 349 340 333 326 319 313 313 312 308 312 316 320 322 324 328 281 249 244 196 145 148 224 251 262 245 248 90 25 79 157 16 51 129 181 215 242 318 115 104 106 102 122 144 147
355 350 347 337 328 319 317 312 306 306 309 315 319 320 321 317 284 243 210 193 181 171 251 285 285 276 282 72 7 16 286 127 84 104 201 18 307 331 150 123 123 136 150 155 158
354 354 349 340 333 324 316 308 307 309 310 311 314 315 318 269 211 95 129 156 184 209 233 271 272 279 301 117 109 327 238 109 120 64 144 355 318 313 141 124 131 138 159 161 158
351 347 346 344 335 326 316 311 307 304 306 307 308 315 302 233 253 144 153 159 176 193 225 247 269 273 258 97 88 108 119 109 114 77 102 284 280 306 115 125 133 138 152 165 171
349 346 341 338 336 327 319 311 305 301 301 302 299 308 242 254 143 149 180 164 215 190 226 247 258 275 128 119 134 177 121 128 144 146 146 244 309 318 84 117 133 145 171 138 162
346 343 341 335 333 326 318 313 304 300 297 291 281 266 261 255 132 165 186 194 210 214 226 245 261 298 123 93 42 321 131 149 158 178 134 167 329 351 307 334 160 175 153 119 139
342 340 339 336 329 324 317 307 302 295 287 263 247 259 253 246 247 185 181 203 218 238 253 284 296 339 104 78 58 329 19 2 184 175 155 226 235 237 281 288 317 173 135 136 154
339 338 335 333 326 321 315 307 294 284 266 179 208 240 270 239 210 226 219 216 204 233 267 270 294 277 59 77 53 268 137 292 179 185 147 205 222 247 270 341 302 193 142 151 135
338 334 332 329 323 320 315 294 291 304 208 200 261 273 261 242 199 221 210 230 197 223 249 244 268 192 51 50 207 197 206 236 270 193 182 194 233 261 259 311 287 228 150 143 148
334 331 325 322 322 324 333 223 101 222 244 206 195 239 278 193 117 314 172 212 249 210 238 246 206 122 140 151 246 225 239 181 243 222 176 131 32 306 277 279 281 253 165 164 156
332 327 325 322 319 318 273 242 251 316 276 221 246 233 264 116 162 212 158 200 200 221 232 272 211 168 145 177 185 230 279 226 233 193 92 88 54 285 276 247 274 236 208 138 143
331 329 329 322 317 222 224 238 273 302 291 285 206 232 213 147 223 184 155 226 208 234 244 227 153 158 164 187 175 198 244 270 140 131 90 95 100 268 248 269 290 143 223 164 155
329 327 328 329 329 332 241 243 240 261 307 261 190 230 181 195 255 167 176 205 221 220 240 249 149 166 184 196 199 159 227 260 135 154 204 223 205 270 211 50 292 298 185 180 185
319 323 325 318 301 279 291 323 19 5 287 137 172 189 156 182 135 163 170 231 261 273 216 256 263 287 213 238 161 232 201 228 306 231 105 247 108 236 124 225 226 242 170 188 186
318 318 328 297 204 249 293 295 339 307 243 186 142 160 164 214 234 128 161 222 279 272 294 258 286 292 213 262 246 282 305 332 278 273 90 133 56 287 189 195 241 254 231 212 207
317 308 297 282 237 324 327 272 316 229 326 157 162 180 198 204 229 157 165 197 234 219 264 237 245 257 198 270 279 230 349 324 2 15 201 167 121 243 169 159 204 184 224 195 209
316 308 230 209 231 264 307 339 241 258 246 143 167 170 188 214 213 152 166 207 233 240 272 227 269 220 200 204 227 202 181 170 177 181 254 158 189 240 169 177 182 208 233 243 208
314 288 232 238 216 256 300 230 222 223 283 351 286 179 191 228 199 152 191 205 221 215 208 291 304 155 177 196 187 267 217 234 235 247 76 20 352 28 158 188 201 222 220 181 163
316 287 261 210 179 182 215 254 270 284 323 315 330 317 197 216 205 186 187 214 229 212 189 261 244 192 151 136 293 283 257 358 340 324 137 221 159 178 166 179 154 151 151 133 136
264 297 330 127 122 98 222 246 281 274 272 286 305 318 322 334 342 252 214 243 206 243 164 232 148 217 108 166 213 273 285 233 161 121 142 80 302 288 163 161 156 170 143 142 136
319 281 178 137 145 210 229 246 262 282 289 290 358 303 296 303 308 326 268 272 262 173 173 203 211 350 234 211 200 204 231 165 120 292 115 120 257 351 53 65 78 127 118 101 116
315 271 253 144 237 243 268 257 251 262 274 282 269 281 276 279 307 299 307 279 257 182 201 192 243 327 326 70 25 34 328 326 324 19 260 128 212 39 97 82 91 67 100 112 119
289 295 251 185 225 268 285 290 303 270 265 283 310 321 309 294 277 283 287 263 246 184 129 90 269 166 204 193 135 30 298 298 272 95 267 140 130 281 230 127 117 131 110 121 114
245 314 17 319 337 325 322 322 327 324 323 315 243 269 285 310 322 315 314 326 335 114 323 121 214 287 275 288 151 168 215 250 298 316 115 203 168 216 174 143 163 141 138 121 134
303 1 347 300 307 314 295 284 289 294 299 305 309 238 257 272 264 326 9 14 307 324 246 271 248 286 291 299 295 242 209 221 250 278 308 292 297 144 154 128 135 154 149 151 176
359 339 320 296 301 294 287 303 293 299 278 280 338 352 314 14 358 24 341 305 283 288 246 294 161 39 258 262 264 292 260 236 194 198 220 209 148 90 135 154 166 163 155 152 66